Content
SEND FEEDBACK

Daily
Averages
Monthly
Summary
Turkmenistan

ASHGABAT, TURKMENISTAN


Home > Asia > Turkmenistan
Elevation: 775 feet     Latitude: 37 58N     Longitude: 058 20E

WEATHER
 
SELECT A DAY
Number of Records: 181,150;   Date Range: 3/15/97 - 10/20/14
 
SHARE

PRINT THIS DATA

[ ← Previous Day ]
WEATHER ALMANAC - AUGUST 25, 2014
[ Next Day → ]
[ °C ]   °F
Weather ElementAverageHighLow
Temperature90.1 °F102.2 °F (12:00 pm)78 °F (8:00 am)
Dewpoint42.4 °F52 °F (5:00 am)35.6 °F (4:00 am)
Humidity18.4 %30 % (10:00 am)8 % (11:30 am)
Barometer29.89 in29.92 in (7:30 am)29.83 in (10:00 am)
Wind Speed5.2 mph8.9 mph (8:00 pm)
Weather ElementAverage
Visibility5.8 mi
Wind DirectionSW (225 °)

Weather ElementTotal
Precipitation---
Cooling Degree Days25.1 (Base 65)
Growing Degree Days40.1 (Base 50)
Averaged from 32 records on August 25, 2014
WEATHER CONDITIONS BREAKOUT
WIND DIRECTION BREAKOUT
WEATHER BY HOUR - AUGUST 25, 2014
[ °C ]   °F
Local TimeTemperatureDewpointHumidityBarometerVisibilityWind DirectionWind SpeedGust SpeedPrecipitationEventsConditions
12:00 AM86.0 °F41.0 °F20 %29.83 in6.2 miCalmClear
1:00 AM84.2 °F42.8 °F23 %29.86 in5.6 miWest (270°)4.5 mphClear
2:00 AM81.0 °F51.0 °F25 %29.85 in6.0 miSW (220°)6.7 mphHaze
2:00 AM82.4 °F46.4 °F28 %29.86 in5.0 miSW (220°)6.7 mphClear
3:00 AM84.2 °F42.8 °F23 %29.86 in3.7 miVariable2.2 mphPartly Cloudy
4:00 AM80.6 °F46.4 °F30 %29.86 in6.2 miVariable2.2 mphClear
5:00 AM78.0 °F52.0 °F30 %29.88 in2.0 miWest (270°)2.2 mph
5:00 AM78.8 °F44.6 °F30 %29.89 in4.3 miVariable2.2 mphClear
6:00 AM78.8 °F44.6 °F30 %29.89 in6.2 miWSW (250°)4.5 mphClear
7:00 AM78.8 °F44.6 °F30 %29.89 in6.2 miWSW (240°)4.5 mphClear
8:00 AM78.0 °F50.0 °F27 %29.91 in6.0 miWest (270°)4.5 mph
8:00 AM84.2 °F42.8 °F23 %29.92 in6.2 miWest (280°)4.5 mphClear
9:00 AM89.6 °F42.8 °F20 %29.92 in6.2 miNW (310°)6.7 mphClear
10:00 AM93.2 °F42.8 °F17 %29.92 in6.2 miNNW (340°)6.7 mphClear
11:00 AM92.0 °F49.0 °F14 %29.91 in6.0 miWest (280°)6.7 mph
11:00 AM95.0 °F41.0 °F15 %29.92 in6.2 miNW (310°)6.7 mphClear
12:00 PM96.8 °F39.2 °F14 %29.92 in6.2 miNorth (350°)6.7 mphClear
1:00 PM98.6 °F39.2 °F13 %29.92 in6.2 miNNW (340°)6.7 mphClear
2:00 PM98.0 °F45.0 °F9 %29.89 in6.0 miNorth (350°)8.9 mph
2:00 PM100.4 °F37.4 °F11 %29.89 in6.2 miNNW (330°)6.7 mphClear
3:00 PM100.4 °F37.4 °F11 %29.89 in6.2 miWest (280°)4.5 mphClear
4:00 PM100.4 °F37.4 °F11 %29.86 in6.2 miWNW (290°)4.5 mphClear
5:00 PM100.0 °F44.0 °F8 %29.85 in6.0 miNorth (350°)6.7 mph
5:00 PM102.2 °F35.6 °F10 %29.86 in6.2 miNorth (350°)6.7 mphClear
6:00 PM100.4 °F35.6 °F11 %29.86 in6.2 miNorth (360°)8.9 mphClear
7:00 PM98.6 °F35.6 °F11 %29.86 in6.2 miNorth (350°)8.9 mphClear
8:00 PM97.0 °F44.0 °F9 %29.86 in6.0 miNNE (30°)6.7 mph
8:00 PM95.0 °F37.4 °F13 %29.89 in6.2 miNNE (30°)4.5 mphClear
9:00 PM91.4 °F35.6 °F14 %29.89 in6.2 miNorth (10°)6.7 mphClear
10:00 PM87.8 °F37.4 °F17 %29.92 in5.6 miWest (270°)2.2 mphClear
11:00 PM85.0 °F51.0 °F21 %29.92 in6.0 miWSW (250°)2.2 mph
11:00 PM86.0 °F41.0 °F20 %29.92 inVariable2.2 mphHaze
Hourly data recorded from UTAA, located miles away from Ashgabat, Turkmenistan







STORIES FROM OUR PARTNERS